This demonstration page uses our WeatherBlox Daily Observations layout. Learn more.

39.92423, -83.80882

Hourly Observations for December 15, 2017

Temp ( °F °C ) Dew Point ( °F °C ) Humidity (%) Winds ( mph kmh ) Pressure ( in mb ) Visibility ( mi km ) Precip ( " mm )
12:56 am 00:56 Clear 16 -8.9 13 -10.6 88 88 Calm 30.1 1019 10 16.0934 0 0
1:56 am 01:56 Clear 17 -8.3 15 -9.4 92 92 Calm 30.08 1019 10 16.0934 0 0
2:56 am 02:56 Clear 16 -8.9 14 -10 92 92 Calm 30.07 1018 9 14.48406 0 0
3:56 am 03:56 Clear 18 -7.8 16 -8.9 92 92 SSE 3 6 30.07 1018 10 16.0934 0 0
4:56 am 04:56 Clear 17 -8.3 15 -9.4 92 92 Calm 30.06 1018 9 14.48406 0 0
5:56 am 05:56 Cloudy 19 -7.2 17 -8.3 92 92 S 3 6 30.06 1018 10 16.0934 0 0
6:56 am 06:56 Cloudy 19 -7.2 17 -8.3 92 92 SSW 3 6 30.05 1018 9 14.48406 0 0
7:56 am 07:56 Mostly Cloudy 19 -7.2 17 -8.3 92 92 SW 6 9 30.04 1017 8 12.87472 0 0
8:56 am 08:56 Cloudy 21 -6.1 18 -7.8 88 88 SW 8 13 30.04 1017 10 16.0934 0 0
9:56 am 09:56 Cloudy 23 -5 19 -7.2 85 85 SW 12 19 30.04 1017 9 14.48406 0 0
10:56 am 10:56 Cloudy 25 -3.9 19 -7.2 78 78 SW 10 17 30.04 1017 10 16.0934 0 0
11:56 am 11:56 Cloudy 31 -0.6 21 -6.1 67 67 SW 17 28 29.99 1016 10 16.0934 0 0.0254
12:56 pm 12:56 Cloudy 29 -1.7 20 -6.7 69 69 WSW 18 30 29.98 1015 10 16.0934 0 0
1:07 pm 13:07 Windy with Snow Likely 28 -2 19 -7 69 69 WSW 20 31 30 1016 10 16.0934 0 0.0254
1:56 pm 13:56 Cloudy 29 -1.7 21 -6.1 72 72 WSW 18 30 29.97 1015 10 16.0934 0 0.0254
2:56 pm 14:56 Cloudy 29 -1.7 21 -6.1 72 72 WSW 15 24 29.98 1015 10 16.0934 0 0
3:56 pm 15:56 Cloudy 29 -1.7 21 -6.1 72 72 WSW 15 24 29.99 1016 10 16.0934 0 0.0254
4:56 pm 16:56 Cloudy 29 -1.7 21 -6.1 72 72 W 18 30 30.01 1016 10 16.0934 0 0
5:56 pm 17:56 Cloudy 29 -1.7 20 -6.7 69 69 W 17 28 30.04 1017 10 16.0934 0 0
7:56 pm 19:56 Cloudy 28 -2.2 21 -6.1 75 75 WSW 12 19 30.08 1019 10 16.0934 0 0
8:56 pm 20:56 Cloudy 28 -2.2 21 -6.1 75 75 SW 10 17 30.08 1019 10 16.0934 0 0
9:56 pm 21:56 Cloudy 28 -2.2 21 -6.1 75 75 WSW 13 20 30.09 1019 10 16.0934 0 0
10:56 pm 22:56 Cloudy 29 -1.7 22 -5.6 75 75 WSW 10 17 30.1 1019 10 16.0934 0 0
11:56 pm 23:56 Cloudy with Light Snow 29 -1.7 22 -5.6 75 75 SSW 7 11 30.09 1019 9 14.48406 0 0.0254

Powered by AerisWeather